User: anonymous   Login
Location: Tucson
(32.2217°N, 110.9265°W)
Time: 19:03:14
(UTC-07:00)
Language:

N. Korean satellite - Orbit

View from above orbital plane
View from above orbital plane
View from above satellite
View from above satellite

Ground track
Ground track

The orbit data is extracted from the following two-line orbital elements,

1 39026U 12072A   21295.51130926  .00004170  00000-0  13902-3 0  9998
2 39026  97.2542 285.4134 0032834 292.5007  67.2760 15.31127597492467
Epoch (UTC): 22 October 2021 12:16:17
Eccentricity: 0.0032834
inclination: 97.2542°
perigee height: 450 km
apogee height: 495 km
right ascension of ascending node: 285.4134°
argument of perigee: 292.5007°
revolutions per day: 15.31127597
mean anomaly at epoch: 67.2760°
orbit number at epoch: 49246

The dashed part of the orbit path shows where the satellite is in the earth's shadow,  

DLR